Simultaneous Nadir Overpasses (SNOs) Predictions

Prediction of SNOs between AURA and NPP Satellite Orbit:

Table of predicted SNOs for the next 14.0 days since TLE Epoch: 1/27/2017
Index Date (AURA) Time (AURA) Lat,Lon (AURA) SZA (AURA ) Date (NPP) Time (NPP) Lat,Lon (NPP) SZA (NPP ) Distance(km) Time Diff (sec)
1 01/30/2017 02:51:57 -79.49,-146.13 69.68 01/30/2017 02:51:06 -79.49,-146.13 69.65 0.22 51
2 01/30/2017 03:41:17 79.71, 23.11 109.98 01/30/2017 03:41:44 79.71, 23.04 109.98 1.47 27
3 02/01/2017 19:08:27 -79.53, -29.98 70.47 02/01/2017 19:07:59 -79.52, -30.13 70.42 3.13 28
4 02/01/2017 19:57:45 79.82, 139.81 109.10 02/01/2017 19:58:34 79.83, 139.90 109.04 1.80 49
5 02/04/2017 11:24:53 -79.67, 86.92 71.44 02/04/2017 11:24:47 -79.68, 86.97 71.44 0.90 6
6 02/04/2017 12:14:14 79.85,-104.09 108.29 02/04/2017 12:15:26 79.85,-104.11 108.24 0.49 72
7 02/07/2017 02:52:02 79.46, 33.66 108.08 02/07/2017 02:51:02 79.46, 33.63 108.13 0.64 60
8 02/07/2017 03:41:23 -79.70,-157.02 72.28 02/07/2017 03:41:40 -79.70,-157.05 72.29 0.59 17
9 02/09/2017 19:08:30 79.55, 150.18 107.12 02/09/2017 19:07:53 79.55, 150.12 107.15 1.18 37




NCC Satellite Simultaneous Nadir Overpasses (SNOs) Prediction Service
